Showing default

GRUS-1C, 47933

Orbit data source: Space-Track

GRUS-1C, 47933 is a payload satellite owned by AXELSPACE (JP) in SSO that was launched on Mon, 22 Mar 2021 UTC via a SOYUZ-2-1A launch vehicle from the Tyuratam Missile And Space Complex (TTMTR). Payload-class satellites include a variety of spacecraft equipped with specific instruments for various scientific and technological missions. These include communications satellites like Starlink; space stations such as the ISS; scientific satellites like the Hubble; Earth observation satellites from companies like Planet Labs, Umbra, and HawkEye 360; GPS; miniature CubeSats for education and research; and military/defense satellites.

Loading next visibility...
Identifier
47933, 2021-022B
Orbit
SSO
Country
Flag of JPJP / JPN
Related business
Manufacturer
AXELSPACE
Mission
Operational Commercial Imaging
Bus & Motor
GRUS, Unknown motor
Mass
80 kg wet, 80 kg dry
Launch date (UTC)
2021-03-22 (5 years ago)
Launch vehicle
SOYUZ-2-1A
Launch site
Tyuratam Missile And Space Complex (TTMTR)
Object type
Payload
Rocket body
Debris
Shape & HBR
Box, 0.3 m
Radar Cross Section
0.375 m², Medium (>0.1 m² and < 1m²)

Expand to show TLE details & history
Last TLE update: 22 hours ago

TLE from 22 hours ago
0 GRUS-1C
1 47933U 21022B   26172.52833046  .00000484  00000-0  44833-4 0  9994
2 47933  97.5355  55.5001 0012569 305.9208  54.0848 14.98783312286559
Epoch: 2026-06-21T12:40Z
TLE epoch observation values (Epoch: 2026-06-21T12:40:47.751Z)
Latitude
-0.00006°
Longitude
-44.42616°
Altitude
568.595 km
Speed
7.58 km/s
True Right ascension
03h 42m 00s
True Declination
0° 00' 00"
Sunlit
Object was in daylight at epoch
Visualization orbit readout
Latitude
Unknown
Longitude
Unknown
Altitude
Unknown
Speed
Unknown
Apparent Right ascension
Unknown
Apparent Declination
Unknown
Sunlit
N/A
Visualization observer readout
Local Sidereal Time
21:41:08
Azimuth
Unknown
Elevation
Unknown
Doppler factor
Unknown
Orbital elements
Apogee altitude
576.384 km
Perigee altitude
558.924 km
Semi-major axis
6,945.791 km
Eccentricity
0.00126
Inclination
97.5355°
RAAN
55.5001°
Arg. of periapsis
305.9208°
True anomaly
54.20156°
Mean anomaly
54.0848°
Eccentric anomaly
54.14317°
Mean motion
3.74939 °/min
Orbital period
96.02 mins
BSTAR
0.000044833
Loading maneuver chart data...
Computing Atmospheric mass density...
Loading historical data...
Loading historical data...
Loading historical data...
Loading historical data...
Loading historical data...
Loading historical data...
Loading historical data...

Documentation

Showing up to 5 results
|